Location: Frankfurt+(oder)
(51.7984°N, 12.2168°E)
Time: 22:16:01
(UTC+01:00)

ISS - Pass Details

Date: 06 January 2018
Orbit: 401 x 407 km, 51.6° (Epoch: 17 January)

Event Time Altitude Azimuth Distance (km) Brightness Sun altitude
Exits shadow 05:15:13 23° 86° (E) 923 -1.3 -26.9°
Drops below altitude 10° 05:16:36 10° 83° (E) 1,469 0.0 -26.7°
Sets 05:18:41 0° 81° (E) 2,331 1.3 -26.4°
